F4ELU-13 Weather Reports


time (UTC)temp
C
wind
direction
speed
KPH
gust
KPH
rain 1hr
cm
rain 24hr
cm
rain mn
cm
humidity
%
barometer
mb
20260503184503 14 67 0.0 3.2 0.00 0.03 0.03 75 1012.4
20260503183603 15 118 0.0 3.2 0.00 0.03 0.03 75 1012.4
20260503182703 16 172 0.0 6.4 0.00 0.03 0.03 70 1012.2
20260503181803 16 201 3.2 9.7 0.00 0.03 0.03 69 1012.2
20260503180903 16 180 4.8 12.9 0.00 0.03 0.03 68 1012.1
20260503180003 16 173 4.8 14.5 0.00 0.03 0.03 67 1012.1
20260503175403 16 165 3.2 9.7 0.00 0.03 0.03 68 1012.0
20260503174503 16 153 0.0 6.4 0.00 0.03 0.03 69 1012.0
20260503173603 16 187 0.0 9.7 0.00 0.03 0.03 69 1012.2
20260503172703 16 147 3.2 9.7 0.00 0.03 0.03 68 1012.2
20260503171803 16 145 0.0 3.2 0.00 0.03 0.03 68 1012.3
20260503170903 17 158 0.0 6.4 0.00 0.03 0.03 68 1012.3
20260503150903 19 0 0.0 0.0 0.00 0.03 0.03 61 1013.0
20260503130903 15 0 0.0 0.0 0.03 0.03 0.03 78 1015.0
20260503080903 16 0 0.0 0.0 0.00 0.00 0.00 64 1014.6
20260503072703 16 0 0.0 0.0 0.00 0.00 0.00 62 1014.3
20260503071803 15 0 0.0 0.0 0.00 0.00 0.00 65 1014.3
20260503070903 15 0 0.0 0.0 0.00 0.00 0.00 64 1014.3
20260503054503 13 0 0.0 0.0 0.00 0.00 0.00 60 1014.3
20260503053603 14 0 0.0 0.0 0.00 0.00 0.00 58 1014.2
20260503052703 13 0 0.0 0.0 0.00 0.00 0.00 55 1014.1
20260503051803 13 0 0.0 0.0 0.00 0.00 0.00 58 1014.0
20260503050903 13 0 0.0 0.0 0.00 0.00 0.00 57 1014.0
20260503050003 13 0 0.0 0.0 0.00 0.00 0.00 56 1014.0
20260503045403 13 0 0.0 0.0 0.00 0.00 0.00 58 1014.1
20260503044503 13 0 0.0 0.0 0.00 0.00 0.00 55 1014.1
20260503043603 13 0 0.0 0.0 0.00 0.00 0.00 57 1014.1
20260503042703 13 0 0.0 0.0 0.00 0.00 0.00 57 1014.2
20260503041803 13 0 0.0 0.0 0.00 0.00 0.00 54 1014.2
20260503040903 13 0 0.0 0.0 0.00 0.00 0.00 53 1014.2
20260503040003 14 0 0.0 0.0 0.00 0.00 0.00 51 1014.2
20260503035403 14 0 0.0 0.0 0.00 0.00 0.00 50 1014.2
20260503034503 14 0 0.0 0.0 0.00 0.00 0.00 49 1014.3
20260503033603 14 0 0.0 0.0 0.00 0.00 0.00 49 1014.1
20260503032703 14 0 0.0 0.0 0.00 0.00 0.00 49 1014.3
20260503031803 14 0 0.0 0.0 0.00 0.00 0.00 50 1014.2
20260503030903 14 0 0.0 0.0 0.00 0.00 0.00 49 1014.3
20260503030003 14 0 0.0 0.0 0.00 0.00 0.00 48 1014.3
20260503025403 14 0 0.0 0.0 0.00 0.00 0.00 48 1014.2
20260503024503 14 0 0.0 0.0 0.00 0.00 0.00 48 1014.2
20260503023603 14 0 0.0 0.0 0.00 0.00 0.00 48 1014.4
20260503022703 14 0 0.0 0.0 0.00 0.00 0.00 47 1014.4
20260503021803 14 0 0.0 0.0 0.00 0.00 0.00 48 1014.3
20260503020903 14 0 0.0 0.0 0.00 0.00 0.00 48 1014.5
20260503020003 13 0 0.0 0.0 0.00 0.00 0.00 49 1014.5
20260503015403 13 0 0.0 0.0 0.00 0.00 0.00 50 1014.5
20260503014503 13 0 0.0 0.0 0.00 0.00 0.00 48 1014.5
20260503013603 14 0 0.0 0.0 0.00 0.00 0.00 47 1014.6
20260503012703 14 0 0.0 0.0 0.00 0.00 0.00 47 1014.7
20260503011803 14 0 0.0 0.0 0.00 0.00 0.00 46 1014.8
20260503010903 15 0 0.0 0.0 0.00 0.00 0.00 44 1014.9
20260503010003 15 0 0.0 0.0 0.00 0.00 0.00 44 1014.9
20260503005403 15 0 0.0 0.0 0.00 0.00 0.00 44 1014.9
20260503004503 15 0 0.0 0.0 0.00 0.00 0.00 44 1015.1
20260503003603 15 0 0.0 0.0 0.00 0.00 0.00 44 1015.3
20260503002703 15 0 0.0 0.0 0.00 0.00 0.00 44 1015.3
20260503001803 15 0 0.0 0.0 0.00 0.00 0.00 43 1015.4
20260503000903 15 0 0.0 0.0 0.00 0.00 0.00 43 1015.6
20260503000003 15 0 0.0 0.0 0.00 0.00 0.00 44 1015.5
20260502235403 16 0 0.0 0.0 0.00 0.00 0.00 43 1015.4
20260502234503 16 0 0.0 0.0 0.00 0.00 0.00 43 1015.5
20260502233603 16 0 0.0 0.0 0.00 0.00 0.00 44 1015.6
20260502232703 15 0 0.0 0.0 0.00 0.00 0.00 46 1015.7
20260502231803 15 0 0.0 0.0 0.00 0.00 0.00 47 1015.6
20260502230903 15 0 0.0 0.0 0.00 0.00 0.00 48 1015.9
20260502230003 15 0 0.0 0.0 0.00 0.00 0.00 49 1015.9
20260502225403 15 0 0.0 0.0 0.00 0.00 0.00 51 1015.6
20260502224503 15 0 0.0 0.0 0.00 0.00 0.00 51 1015.7
20260502223603 15 0 0.0 0.0 0.00 0.00 0.00 52 1015.8
20260502222703 15 0 0.0 0.0 0.00 0.00 0.00 53 1015.7
20260502221803 15 0 0.0 0.0 0.00 0.00 0.00 52 1015.8
20260502220903 15 0 0.0 0.0 0.00 0.00 0.00 53 1015.8
20260502220003 15 0 0.0 0.0 0.00 0.00 0.00 51 1015.9
20260502215403 15 0 0.0 0.0 0.00 0.00 0.00 52 1015.9
20260502214503 15 0 0.0 0.0 0.00 0.00 0.00 53 1015.9
20260502213603 14 0 0.0 0.0 0.00 0.00 0.00 54 1016.0
20260502212703 13 0 0.0 0.0 0.00 0.00 0.00 55 1016.0
20260502211803 13 0 0.0 0.0 0.00 0.00 0.00 57 1015.9
20260502210903 13 0 0.0 0.0 0.00 0.00 0.00 55 1016.1
20260502210003 13 0 0.0 0.0 0.00 0.00 0.00 54 1016.3
20260502205403 13 0 0.0 0.0 0.00 0.00 0.00 54 1016.2
20260502204503 13 0 0.0 0.0 0.00 0.00 0.00 55 1016.3
20260502203603 13 0 0.0 0.0 0.00 0.00 0.00 55 1016.3
20260502202703 15 0 0.0 0.0 0.00 0.00 0.00 52 1016.3
20260502201803 15 0 0.0 0.0 0.00 0.00 0.00 50 1016.3
20260502200903 16 0 0.0 0.0 0.00 0.00 0.00 45 1016.3
20260502200003 16 0 0.0 0.0 0.00 0.00 0.00 44 1016.2
20260502195403 16 0 0.0 0.0 0.00 0.00 0.00 44 1016.2
20260502194503 16 0 0.0 0.0 0.00 0.00 0.00 44 1016.1
20260502193603 17 0 0.0 0.0 0.00 0.00 0.00 45 1016.1
20260502192703 17 0 0.0 0.0 0.00 0.00 0.00 42 1015.9
20260502191803 17 0 0.0 0.0 0.00 0.00 0.00 44 1015.9
20260502190903 17 0 0.0 0.0 0.00 0.00 0.00 44 1015.8
20260502190003 17 0 0.0 0.0 0.00 0.00 0.00 42 1015.9
20260502185403 18 0 0.0 0.0 0.00 0.00 0.00 44 1015.7